Location: Unspecified
(0.0000°N, 0.0000°E)
Time: 14:09:03
(UTC+00:00)

Vanguard 3 - Pass Details

Date: 06 December 2025
Orbit: 507 x 3207 km, 33.3° (Epoch: 22 January)

Event Time Altitude Azimuth Distance (km) Brightness Sun altitude
Rises 21:57:42 0° 318° (NW) 3,160 - -54.3°
Reaches altitude 10° 21:59:43 10° 324° (NW) 2,441 - -54.7°
Maximum altitude 22:05:22 53° 41° (NE) 1,410 - -55.7°
Drops below altitude 10° 22:15:16 10° 114° (ESE) 4,200 - -57.5°
Sets 22:19:49 0° 118° (ESE) 5,665 - -58.3°
